CCA8419 ZYTL-ZBAA

Flight info

Callsign CCA8419
Flight time N/A
Altitude 27600
Route ORA19D ORAVA W576 OVTUP W55 DUMAP DUMAP9Z
Aircraft A321/M-SDE3FGHIRWY/LB1

Departure

Time N/A
Airport Dalian Zhoushuizi International Airport (ZYTL)

Arrival

Time 2026-05-07 14:11
Airport Beijing Capital International Airport (ZBAA)
Time Latitude Longitude Altitude Speed Heading
2026-05-07 13:27 38.68311 120.37179 22527 ft 377 kts 285°
2026-05-07 13:27 38.68867 120.33894 22926 ft 379 kts 284°
2026-05-07 13:27 38.69399 120.30626 23310 ft 381 kts 284°
2026-05-07 13:28 38.69735 120.27252 23680 ft 386 kts 274°
2026-05-07 13:28 38.69414 120.23808 23995 ft 395 kts 260°
2026-05-07 13:28 38.68405 120.20504 24324 ft 405 kts 246°
2026-05-07 13:28 38.66726 120.17558 24638 ft 416 kts 232°
2026-05-07 13:29 38.64453 120.15203 24710 ft 426 kts 219°
2026-05-07 13:29 38.62005 120.13089 24716 ft 420 kts 226°
2026-05-07 13:29 38.60024 120.10438 24290 ft 405 kts 242°
2026-05-07 13:29 38.58749 120.07299 23816 ft 393 kts 256°
2026-05-07 13:30 38.58189 120.03933 23301 ft 384 kts 270°
2026-05-07 13:30 38.58189 120.00539 22739 ft 381 kts 275°
2026-05-07 13:30 38.58258 119.97169 22196 ft 379 kts 275°
2026-05-07 13:30 38.58329 119.93812 21839 ft 377 kts 276°
2026-05-07 13:31 38.58395 119.90461 21817 ft 378 kts 275°
2026-05-07 13:31 38.58449 119.87101 21827 ft 379 kts 275°
2026-05-07 13:31 38.58490 119.83732 21828 ft 379 kts 275°
2026-05-07 13:31 38.58527 119.80323 21832 ft 390 kts 275°
2026-05-07 13:32 38.58565 119.76844 21825 ft 402 kts 275°
2026-05-07 13:32 38.58605 119.73223 21827 ft 412 kts 275°
2026-05-07 13:32 38.58646 119.69514 21819 ft 421 kts 275°
2026-05-07 13:32 38.58685 119.65759 21831 ft 424 kts 275°
2026-05-07 13:33 38.58723 119.61981 21829 ft 425 kts 274°
2026-05-07 13:33 38.58757 119.58206 21827 ft 425 kts 274°
2026-05-07 13:33 38.58789 119.54420 21826 ft 426 kts 274°
2026-05-07 13:33 38.58819 119.50641 21832 ft 426 kts 275°
2026-05-07 13:34 38.58849 119.46857 21828 ft 426 kts 274°
2026-05-07 13:34 38.58904 119.39287 21828 ft 426 kts 274°
2026-05-07 13:34 38.58930 119.35492 21827 ft 426 kts 274°
2026-05-07 13:35 38.58953 119.31705 21823 ft 426 kts 274°
2026-05-07 13:35 38.58977 119.27917 21825 ft 426 kts 274°
2026-05-07 13:35 38.59002 119.24170 21823 ft 426 kts 274°
2026-05-07 13:35 38.59029 119.20375 21823 ft 427 kts 275°
2026-05-07 13:36 38.59055 119.16583 21824 ft 427 kts 275°
2026-05-07 13:36 38.59077 119.12780 21822 ft 427 kts 274°
2026-05-07 13:36 38.59097 119.08990 21825 ft 427 kts 274°
2026-05-07 13:36 38.59116 119.05187 21823 ft 427 kts 274°
2026-05-07 13:37 38.59132 119.01390 21825 ft 427 kts 274°
2026-05-07 13:37 38.59144 118.97592 21823 ft 428 kts 274°
2026-05-07 13:37 38.59155 118.93795 21823 ft 428 kts 274°
2026-05-07 13:37 38.59169 118.89984 21823 ft 428 kts 274°
2026-05-07 13:38 38.59184 118.86186 21827 ft 428 kts 274°
2026-05-07 13:38 38.59197 118.82382 21827 ft 428 kts 274°
2026-05-07 13:38 38.59208 118.78573 21825 ft 428 kts 274°
2026-05-07 13:38 38.59214 118.74768 21826 ft 428 kts 274°
2026-05-07 13:39 38.59217 118.70961 21825 ft 428 kts 274°
2026-05-07 13:39 38.59220 118.67198 21820 ft 429 kts 274°
2026-05-07 13:39 38.59225 118.63385 21826 ft 429 kts 274°
2026-05-07 13:39 38.59230 118.59576 21830 ft 428 kts 274°
2026-05-07 13:40 38.59234 118.55767 21829 ft 429 kts 274°
2026-05-07 13:40 38.59234 118.51966 21827 ft 424 kts 274°
2026-05-07 13:40 38.59229 118.48269 21621 ft 409 kts 274°
2026-05-07 13:40 38.59224 118.44670 21087 ft 402 kts 275°
2026-05-07 13:41 38.59222 118.41114 20591 ft 399 kts 275°
2026-05-07 13:41 38.59225 118.37577 20076 ft 397 kts 275°
2026-05-07 13:41 38.59226 118.34060 19579 ft 395 kts 275°
2026-05-07 13:41 38.59222 118.30556 19086 ft 393 kts 275°
2026-05-07 13:42 38.59216 118.27066 18602 ft 392 kts 275°
2026-05-07 13:42 38.59207 118.23587 18085 ft 391 kts 275°
2026-05-07 13:42 38.59197 118.20125 17818 ft 389 kts 275°
2026-05-07 13:42 38.59185 118.16667 17828 ft 390 kts 275°
2026-05-07 13:43 38.59173 118.13203 17829 ft 390 kts 275°
2026-05-07 13:43 38.59161 118.09732 17828 ft 390 kts 275°
2026-05-07 13:43 38.59154 118.06264 17829 ft 390 kts 276°
2026-05-07 13:43 38.59456 118.02854 17834 ft 383 kts 287°
2026-05-07 13:44 38.60286 117.99646 17830 ft 378 kts 297°
2026-05-07 13:44 38.61368 117.96586 17828 ft 378 kts 298°
2026-05-07 13:44 38.62441 117.93527 17830 ft 378 kts 298°
2026-05-07 13:44 38.63515 117.90451 17830 ft 378 kts 297°
2026-05-07 13:45 38.64586 117.87381 17826 ft 378 kts 297°
2026-05-07 13:45 38.65656 117.84312 17826 ft 378 kts 297°
2026-05-07 13:45 38.66727 117.81239 17826 ft 378 kts 297°
2026-05-07 13:45 38.67799 117.78159 17827 ft 378 kts 297°
2026-05-07 13:46 38.68869 117.75082 17827 ft 378 kts 297°
2026-05-07 13:46 38.69934 117.72010 17825 ft 378 kts 297°
2026-05-07 13:46 38.71060 117.69026 17826 ft 375 kts 305°
2026-05-07 13:46 38.72725 117.66497 17829 ft 371 kts 321°
2026-05-07 13:47 38.74826 117.64598 17827 ft 370 kts 328°
2026-05-07 13:47 38.77020 117.62773 17828 ft 383 kts 328°
2026-05-07 13:47 38.79293 117.60901 17821 ft 391 kts 328°
2026-05-07 13:47 38.81587 117.59017 17822 ft 393 kts 328°
2026-05-07 13:48 38.83897 117.57116 17822 ft 394 kts 328°
2026-05-07 13:48 38.86200 117.55211 17822 ft 394 kts 328°
2026-05-07 13:48 38.88499 117.53302 17826 ft 394 kts 328°
2026-05-07 13:48 38.90802 117.51387 17827 ft 394 kts 328°
2026-05-07 13:49 38.93100 117.49474 17825 ft 394 kts 328°
2026-05-07 13:49 38.95386 117.47570 17552 ft 384 kts 328°
2026-05-07 13:49 38.97591 117.45732 17037 ft 373 kts 328°
2026-05-07 13:49 38.99738 117.43941 16517 ft 362 kts 328°
2026-05-07 13:50 39.01825 117.42201 16008 ft 353 kts 328°
2026-05-07 13:50 39.03871 117.40495 15508 ft 346 kts 328°
2026-05-07 13:50 39.05873 117.38824 15005 ft 340 kts 328°
2026-05-07 13:50 39.07843 117.37177 14515 ft 335 kts 328°
2026-05-07 13:51 39.09785 117.35554 14030 ft 331 kts 328°
2026-05-07 13:51 39.11702 117.33952 13507 ft 327 kts 328°
2026-05-07 13:51 39.13596 117.32367 12977 ft 323 kts 328°
2026-05-07 13:51 39.15469 117.30800 12448 ft 319 kts 328°
2026-05-07 13:52 39.17321 117.29250 12020 ft 314 kts 328°
2026-05-07 13:52 39.19107 117.27749 11921 ft 298 kts 328°
2026-05-07 13:52 39.20786 117.26333 11932 ft 280 kts 328°
2026-05-07 13:52 39.22382 117.24992 11776 ft 271 kts 328°
2026-05-07 13:53 39.23942 117.23686 11495 ft 264 kts 328°
2026-05-07 13:53 39.25464 117.22410 11219 ft 258 kts 328°
2026-05-07 13:53 39.26955 117.21157 10940 ft 253 kts 328°
2026-05-07 13:53 39.28392 117.19950 10664 ft 247 kts 328°
2026-05-07 13:54 39.29816 117.18754 10391 ft 242 kts 328°
2026-05-07 13:54 39.31212 117.17582 10132 ft 237 kts 328°
2026-05-07 13:54 39.32575 117.16428 9843 ft 232 kts 327°
2026-05-07 13:54 39.33911 117.15298 9549 ft 227 kts 327°
2026-05-07 13:55 39.35223 117.14193 9252 ft 223 kts 327°
2026-05-07 13:55 39.36511 117.13105 8959 ft 219 kts 327°
2026-05-07 13:55 39.37781 117.12033 8672 ft 218 kts 327°
2026-05-07 13:55 39.39047 117.10965 8386 ft 217 kts 327°
2026-05-07 13:56 39.40310 117.09898 8099 ft 217 kts 327°
2026-05-07 13:56 39.41569 117.08832 7821 ft 216 kts 327°
2026-05-07 13:56 39.42825 117.07768 7531 ft 215 kts 327°
2026-05-07 13:56 39.44078 117.06707 7270 ft 215 kts 327°
2026-05-07 13:57 39.45329 117.05649 6994 ft 215 kts 327°
2026-05-07 13:57 39.46582 117.04590 6723 ft 215 kts 326°
2026-05-07 13:57 39.47833 117.03530 6453 ft 215 kts 326°
2026-05-07 13:57 39.49081 117.02472 6168 ft 214 kts 326°
2026-05-07 13:58 39.50360 117.01388 5891 ft 229 kts 326°
2026-05-07 13:58 39.51713 117.00240 5611 ft 234 kts 327°
2026-05-07 13:58 39.53078 116.99079 5325 ft 235 kts 326°
2026-05-07 13:58 39.54440 116.97919 5043 ft 235 kts 326°
2026-05-07 13:59 39.55810 116.96754 4909 ft 242 kts 326°
2026-05-07 13:59 39.57264 116.95518 4898 ft 255 kts 326°
2026-05-07 13:59 39.58752 116.94254 4902 ft 256 kts 326°
2026-05-07 13:59 39.60244 116.92979 4902 ft 257 kts 324°
2026-05-07 14:00 39.61577 116.91472 4899 ft 248 kts 313°
2026-05-07 14:00 39.62616 116.89781 4895 ft 232 kts 307°
2026-05-07 14:00 39.63534 116.88147 4900 ft 218 kts 307°
2026-05-07 14:00 39.64428 116.86574 4903 ft 216 kts 307°
2026-05-07 14:01 39.65322 116.85005 4902 ft 216 kts 307°
2026-05-07 14:01 39.66216 116.83440 4906 ft 216 kts 307°
2026-05-07 14:01 39.67108 116.81870 4903 ft 216 kts 307°
2026-05-07 14:01 39.67846 116.80175 4923 ft 217 kts 294°
2026-05-07 14:02 39.68265 116.78286 4901 ft 220 kts 281°
2026-05-07 14:02 39.68331 116.76302 4776 ft 221 kts 267°
2026-05-07 14:02 39.68154 116.74328 4515 ft 221 kts 265°
2026-05-07 14:02 39.67978 116.72355 4253 ft 219 kts 269°
2026-05-07 14:03 39.68167 116.70428 4012 ft 214 kts 292°
2026-05-07 14:03 39.68909 116.68773 3912 ft 213 kts 313°
2026-05-07 14:03 39.70082 116.67608 3834 ft 216 kts 334°
2026-05-07 14:03 39.71516 116.67108 3630 ft 214 kts 353°
2026-05-07 14:04 39.72999 116.66901 3429 ft 214 kts 352°
2026-05-07 14:04 39.74479 116.66681 3202 ft 214 kts 352°
2026-05-07 14:04 39.75959 116.66456 2944 ft 214 kts 352°
2026-05-07 14:04 39.77441 116.66229 2703 ft 214 kts 352°
2026-05-07 14:05 39.78902 116.66005 2481 ft 210 kts 352°
2026-05-07 14:05 39.80351 116.65777 2222 ft 208 kts 352°
2026-05-07 14:05 39.81776 116.65548 2056 ft 202 kts 353°
2026-05-07 14:05 39.83104 116.65337 2014 ft 190 kts 352°
2026-05-07 14:06 39.84415 116.65132 2016 ft 186 kts 352°
2026-05-07 14:06 39.85675 116.64935 2027 ft 185 kts 352°
2026-05-07 14:06 39.86944 116.64736 2018 ft 184 kts 352°
2026-05-07 14:06 39.88215 116.64538 2027 ft 184 kts 352°
2026-05-07 14:07 39.89482 116.64340 2028 ft 183 kts 352°
2026-05-07 14:07 39.90741 116.64142 2025 ft 182 kts 352°
2026-05-07 14:07 39.92005 116.63944 2034 ft 183 kts 353°
2026-05-07 14:07 39.93269 116.63747 2027 ft 180 kts 352°
2026-05-07 14:08 39.94457 116.63561 2025 ft 167 kts 352°
2026-05-07 14:08 39.95594 116.63383 2045 ft 163 kts 352°
2026-05-07 14:08 39.96715 116.63207 1893 ft 160 kts 352°
2026-05-07 14:08 39.97786 116.63042 1713 ft 151 kts 352°
2026-05-07 14:09 39.98813 116.62888 1560 ft 147 kts 352°
2026-05-07 14:09 39.99825 116.62726 1387 ft 146 kts 352°
2026-05-07 14:09 40.00832 116.62563 1174 ft 146 kts 353°
2026-05-07 14:09 40.01839 116.62415 970 ft 146 kts 352°
2026-05-07 14:10 40.02507 116.62304 838 ft 146 kts 352°
2026-05-07 14:10 40.03859 116.62087 599 ft 146 kts 352°
2026-05-07 14:10 40.04869 116.61928 396 ft 146 kts 352°
2026-05-07 14:10 40.05537 116.61825 246 ft 146 kts 352°
2026-05-07 14:11 40.06527 116.61667 120 ft 136 kts 353°
2026-05-07 14:11 40.07266 116.61552 124 ft 80 kts 353°
2026-05-07 14:11 40.07648 116.61493 121 ft 32 kts 353°
2026-05-07 14:11 40.07852 116.61406 124 ft 30 kts 330°
2026-05-07 14:12 40.07954 116.61312 122 ft 0 kts 323°